User: anonymous   Login
Location: Unspecified
(0.0000°N, 0.0000°E)
Time: 16:24:15
(UTC+00:00)
Language:

CUBESAT XI-V - Orbit

View from above orbital plane
View from above orbital plane
View from above satellite
View from above satellite

Ground track
Ground track

The orbit data is extracted from the following two-line orbital elements,

1 28895U 05043F   24108.35401664  .00006071  00000-0  10830-2 0  9996
2 28895  98.1916 244.1444 0015992 185.6352 174.4674 14.67269849985536
Epoch (UTC): 17 April 2024 08:29:47
Eccentricity: 0.0015992
inclination: 98.1916°
perigee height: 658 km
apogee height: 681 km
right ascension of ascending node: 244.1444°
argument of perigee: 185.6352°
revolutions per day: 14.67269849
mean anomaly at epoch: 174.4674°
orbit number at epoch: 98553

The dashed part of the orbit path shows where the satellite is in the earth's shadow,  

DLR